FW9925 Weather Reports


time (UTC)temp
F
wind
direction
speed
knots
gust
knots
rain 1hr
in
rain 24hr
in
rain mn
in
humidity
%
barometer
mb
20260510105013 43 301 3.5 10.4 0.00 0.17 0.00 67 1012.9
20260510104540 42 37 0.9 4.3 0.00 0.13 0.00 68 1011.7
20260510104528 43 304 1.7 7.8 0.00 0.17 0.00 67 1012.9
20260510104015 43 0 0.0 7.0 0.00 0.17 0.00 67 1012.7
20260510103511 43 299 1.7 7.8 0.00 0.17 0.00 67 1012.5
20260510103040 41 23 0.9 4.3 0.00 0.13 0.00 68 1011.4
20260510103028 43 302 0.9 7.8 0.00 0.17 0.00 67 1012.4
20260510102509 43 305 2.6 7.8 0.00 0.17 0.00 67 1012.3
20260510102013 43 0 2.6 7.8 0.00 0.17 0.00 67 1012.1
20260510101545 41 14 0.9 3.5 0.00 0.13 0.00 68 1011.1
20260510101533 43 310 1.7 8.7 0.00 0.17 0.00 68 1012.0
20260510101010 43 286 1.7 8.7 0.00 0.17 0.00 68 1011.9
20260510100513 43 304 1.7 6.1 0.00 0.17 0.00 68 1011.9
20260510100040 41 4 0.9 4.3 0.00 0.13 0.00 69 1010.8
20260510100034 43 236 1.7 7.0 0.00 0.17 0.00 68 1011.7
20260510095512 43 300 1.7 7.0 0.00 0.17 0.00 67 1011.7
20260510095012 43 347 1.7 7.0 0.00 0.17 0.00 67 1011.6
20260510094554 41 27 0.9 3.5 0.00 0.13 0.00 69 1010.6
20260510094530 43 300 0.9 7.0 0.00 0.17 0.00 67 1011.5
20260510094012 43 340 1.7 7.0 0.00 0.17 0.00 67 1011.5
20260510093512 43 300 0.9 7.0 0.00 0.17 0.00 67 1011.4
20260510093055 42 41 0.9 2.6 0.00 0.13 0.00 69 1010.3
20260510093036 43 337 1.7 8.7 0.00 0.17 0.00 67 1011.4
20260510092557 43 322 2.6 8.7 0.00 0.17 0.00 67 1011.3
20260510092519 43 322 2.6 8.7 0.00 0.17 0.00 67 1011.3
20260510092013 43 311 1.7 7.0 0.00 0.17 0.00 67 1011.3
20260510091544 42 29 1.7 5.2 0.00 0.13 0.00 68 1010.2
20260510091529 43 323 1.7 7.0 0.00 0.17 0.00 66 1011.3
20260510091011 43 321 0.9 3.5 0.00 0.17 0.00 66 1011.0
20260510090512 44 332 0.0 7.0 0.00 0.17 0.00 66 1011.0
20260510090039 42 24 0.9 3.5 0.00 0.13 0.00 67 1009.9
20260510090031 44 0 1.7 7.0 0.00 0.17 0.00 66 1010.9
20260510085512 44 314 0.9 6.1 0.00 0.17 0.00 66 1010.9
20260510085014 44 291 0.0 8.7 0.00 0.17 0.00 66 1010.9
20260510084543 43 43 1.7 6.1 0.00 0.13 0.00 66 1009.7
20260510084532 44 288 1.7 8.7 0.00 0.17 0.00 65 1010.9
20260510084011 44 305 2.6 10.4 0.00 0.17 0.00 64 1010.8
20260510083510 44 277 1.7 10.4 0.00 0.17 0.00 64 1010.7
20260510083044 43 45 0.9 5.2 0.00 0.13 0.00 65 1009.6
20260510083029 45 306 4.3 10.4 0.00 0.17 0.00 64 1010.6
20260510082511 45 360 2.6 7.8 0.00 0.17 0.00 64 1010.7
20260510082011 45 327 2.6 9.6 0.00 0.17 0.00 64 1010.6
20260510081543 44 70 2.6 4.3 0.00 0.13 0.00 65 1009.5
20260510081527 45 276 2.6 10.4 0.00 0.17 0.00 64 1010.7
20260510081010 45 305 1.7 10.4 0.00 0.17 0.00 64 1010.5
20260510080510 45 295 2.6 10.4 0.00 0.17 0.00 64 1010.4
20260510080042 44 39 1.7 5.2 0.00 0.13 0.00 64 1009.5
20260510080028 46 292 1.7 7.8 0.00 0.17 0.00 64 1010.4
20260510075511 46 269 1.7 7.8 0.00 0.17 0.00 63 1010.3
20260510075012 46 286 1.7 10.4 0.00 0.17 0.00 63 1010.3
20260510074543 45 13 0.9 7.8 0.00 0.13 0.00 63 1009.4
20260510074527 47 294 3.5 10.4 0.00 0.17 0.00 62 1010.3
20260510074010 47 0 0.9 9.6 0.00 0.17 0.00 62 1010.3
20260510073508 47 325 1.7 12.2 0.00 0.17 0.00 61 1010.1
20260510073047 46 39 0.9 7.0 0.00 0.13 0.00 61 1009.1
20260510073028 48 13 2.6 12.2 0.00 0.17 0.00 60 1010.1
20260510072509 48 340 3.5 12.2 0.00 0.17 0.00 60 1010.1
20260510072016 48 244 1.7 8.7 0.00 0.17 0.00 60 1010.0
20260510071550 47 43 2.6 6.1 0.00 0.13 0.00 58 1009.0
20260510071537 49 253 1.7 8.7 0.00 0.17 0.00 60 1010.0
20260510071012 49 306 2.6 8.7 0.00 0.17 0.00 59 1009.9
20260510070508 49 347 2.6 10.4 0.00 0.17 0.00 59 1009.9
20260510070046 48 27 0.0 7.0 0.00 0.13 0.00 59 1008.8
20260510070026 49 342 2.6 10.4 0.00 0.17 0.00 58 1009.8
20260510065509 49 250 0.9 13.9 0.00 0.17 0.00 59 1009.7
20260510065009 49 322 2.6 13.9 0.00 0.17 0.00 57 1009.5
20260510064543 49 239 0.9 3.5 0.00 0.13 0.00 58 1008.7
20260510064528 50 295 1.7 11.3 0.00 0.17 0.00 57 1009.6
20260510064012 50 309 3.5 11.3 0.00 0.17 0.00 57 1009.5
20260510063516 50 330 5.2 11.3 0.00 0.17 0.00 57 1009.6
20260510063041 49 48 0.0 2.6 0.00 0.13 0.00 61 1008.5
20260510063029 50 0 2.6 7.8 0.00 0.17 0.00 58 1009.6
20260510062514 50 19 2.6 7.8 0.00 0.17 0.00 58 1009.4
20260510062011 50 312 2.6 7.0 0.00 0.17 0.00 59 1009.3
20260510061542 49 300 0.0 1.7 0.00 0.13 0.00 62 1008.5
20260510061013 50 294 3.5 10.4 0.00 0.17 0.00 58 1009.5
20260510060509 50 260 1.7 7.0 0.00 0.17 0.00 59 1009.3
20260510060036 49 291 0.0 1.7 0.00 0.13 0.00 64 1008.3
20260510060029 50 323 1.7 3.5 0.00 0.17 0.00 60 1009.2
20260510055511 50 265 0.0 7.0 0.00 0.17 0.00 60 1009.1
20260510055011 50 304 0.9 7.0 0.00 0.17 0.00 60 1009.1
20260510054535 50 0 0.0 2.6 0.00 0.13 0.00 63 1008.0
20260510054528 50 306 0.9 4.3 0.00 0.17 0.00 61 1009.0
20260510054015 51 0 0.0 3.5 0.00 0.17 0.00 61 1008.9
20260510053514 51 277 0.9 3.5 0.00 0.17 0.00 60 1008.7
20260510053051 50 0 0.0 3.5 0.00 0.13 0.00 63 1007.9
20260510053030 51 0 0.9 4.3 0.00 0.17 0.00 61 1008.7
20260510052513 51 320 0.9 4.3 0.00 0.17 0.00 60 1008.7
20260510052011 51 259 0.0 4.3 0.00 0.17 0.00 61 1008.6
20260510051547 50 15 0.0 2.6 0.00 0.13 0.00 63 1007.8
20260510051531 51 311 1.7 5.2 0.00 0.17 0.00 61 1008.6
20260510051008 51 301 0.9 6.1 0.00 0.17 0.00 63 1008.5
20260510050512 51 321 1.7 6.1 0.00 0.17 0.00 63 1008.6
20260510050041 50 0 0.0 1.7 0.00 0.13 0.00 62 1007.8
20260510050027 51 284 0.9 2.6 0.00 0.17 0.00 63 1008.6
20260510045512 51 0 0.0 5.2 0.00 0.17 0.00 63 1008.5
20260510045013 51 317 0.0 6.1 0.00 0.17 0.00 63 1008.3
20260510044540 50 10 0.9 3.5 0.00 0.13 0.00 63 1007.5
20260510044528 51 288 0.0 6.1 0.00 0.17 0.00 62 1008.2
20260510044010 51 275 0.9 4.3 0.00 0.17 0.00 62 1007.9
20260510043513 51 0 0.9 7.0 0.00 0.17 0.00 61 1007.9
20260510043045 50 26 0.0 3.5 0.00 0.13 0.00 64 1007.3
20260510043028 52 331 1.7 7.0 0.00 0.17 0.00 61 1007.8
20260510042513 52 261 1.7 5.2 0.00 0.17 0.00 61 1007.7
20260510042013 52 286 0.9 7.0 0.00 0.17 0.00 62 1007.7
20260510041538 50 25 0.0 0.9 0.00 0.13 0.00 67 1007.0
20260510041527 52 23 1.7 7.8 0.00 0.17 0.00 62 1007.5
20260510041015 52 5 1.7 9.6 0.00 0.17 0.00 62 1007.6
20260510040512 52 341 2.6 9.6 0.00 0.17 0.00 62 1007.6
20260510040046 50 32 0.0 1.7 0.00 0.13 0.00 65 1006.9
20260510040030 52 312 1.7 7.8 0.00 0.17 0.00 62 1007.4
20260510035514 52 307 2.6 9.6 0.00 0.17 0.17 61 1007.4
20260510035013 52 332 1.7 10.4 0.00 0.17 0.17 61 1007.3
20260510034541 51 25 0.0 4.3 0.00 0.13 0.13 66 1006.7
20260510034529 52 38 3.5 10.4 0.00 0.17 0.17 62 1007.2
20260510034013 52 5 3.5 7.8 0.00 0.17 0.17 62 1007.2
20260510033511 52 313 2.6 9.6 0.00 0.17 0.17 63 1007.3
20260510033040 51 30 2.6 6.1 0.00 0.13 0.13 66 1006.5
20260510033029 53 292 1.7 9.6 0.00 0.17 0.17 65 1007.2
20260510032513 53 327 2.6 9.6 0.00 0.17 0.17 66 1006.8
20260510032015 53 360 3.5 9.6 0.00 0.17 0.17 70 1006.9
20260510031546 52 29 1.7 5.2 0.00 0.13 0.13 68 1006.2
20260510031542 53 360 1.7 10.4 0.00 0.17 0.17 73 1006.9
20260510031013 53 315 3.5 10.4 0.00 0.17 0.17 75 1006.7
20260510030513 53 332 2.6 8.7 0.00 0.17 0.17 80 1007.0
20260510030040 52 34 3.5 7.8 0.00 0.13 0.13 70 1006.4
20260510030030 54 317 0.0 2.6 0.00 0.17 0.17 83 1007.0
20260510025512 54 317 0.0 4.3 0.00 0.17 0.17 83 1006.9
20260510025009 54 333 0.9 7.8 0.00 0.17 0.17 83 1007.0
20260510024541 52 31 0.0 1.7 0.00 0.13 0.13 88 1006.2
20260510024537 54 0 0.0 7.8 0.00 0.17 0.17 83 1006.8
20260510024013 54 318 2.6 7.8 0.00 0.17 0.17 82 1006.9
20260510023512 55 273 2.6 7.8 0.00 0.17 0.17 81 1007.0
20260510023041 53 0 0.0 0.0 0.00 0.13 0.13 89 1006.3
20260510023030 55 291 1.7 7.8 0.00 0.17 0.17 81 1006.8
20260510022517 55 321 1.7 7.8 0.00 0.16 0.16 80 1006.7
20260510022011 55 321 0.9 5.2 0.00 0.16 0.16 79 1006.6
20260510021547 52 344 0.0 0.9 0.00 0.12 0.12 89 1005.9
20260510021529 55 243 0.9 5.2 0.00 0.16 0.16 79 1006.5
20260510021011 55 296 0.9 4.3 0.00 0.16 0.16 80 1006.2
20260510020509 55 281 1.7 4.3 0.00 0.16 0.16 80 1006.0
20260510020042 52 0 0.0 0.9 0.00 0.12 0.12 89 1005.6
20260510020028 55 242 1.7 6.1 0.00 0.16 0.16 81 1006.3
20260510015509 54 261 2.6 6.1 0.00 0.16 0.16 82 1006.1
20260510015011 54 241 1.7 6.1 0.00 0.16 0.16 83 1006.1
20260510014536 52 0 0.0 0.9 0.00 0.12 0.12 89 1005.2
20260510014534 53 262 0.0 2.6 0.00 0.16 0.16 84 1005.8
20260510014012 53 0 0.0 0.9 0.00 0.16 0.16 83 1005.8
20260510013512 53 0 0.0 0.9 0.00 0.16 0.16 82 1005.6
20260510013049 52 260 0.0 0.9 0.00 0.12 0.12 89 1004.9
20260510013029 54 0 0.0 1.7 0.00 0.16 0.16 82 1005.4
20260510012511 54 0 0.0 1.7 0.00 0.16 0.16 81 1005.1
20260510012009 54 0 0.0 2.6 0.00 0.16 0.16 81 1005.1
20260510011544 52 0 0.0 0.9 0.00 0.12 0.12 88 1004.5
20260510011536 54 0 0.0 2.6 0.00 0.16 0.16 81 1004.9
20260510011012 54 227 0.0 2.6 0.00 0.16 0.16 80 1004.9
20260510010511 54 0 0.0 4.3 0.00 0.16 0.16 80 1004.8
20260510010041 53 0 0.9 2.6 0.02 0.12 0.12 87 1004.0
20260510010031 54 220 0.9 4.3 0.00 0.16 0.16 80 1004.6
20260510005511 54 247 1.7 4.3 0.00 0.16 0.16 81 1004.7
20260510005012 54 0 0.0 2.6 0.00 0.16 0.16 82 1004.6
20260510004545 53 264 0.0 1.7 0.03 0.12 0.12 87 1003.8
20260510004528 54 0 0.0 2.6 0.00 0.16 0.16 81 1004.6
20260510004013 54 216 0.9 2.6 0.00 0.16 0.16 81 1004.5
20260510003511 54 225 0.9 2.6 0.00 0.16 0.16 81 1004.4
20260510003055 54 236 0.0 7.0 0.00 0.16 0.16 80 1004.4
20260510003043 54 260 1.7 5.2 0.03 0.12 0.12 86 1003.5
20260510002513 54 0 0.0 7.0 0.00 0.16 0.16 80 1004.4
20260510002011 54 254 2.6 7.0 0.00 0.16 0.16 80 1004.6
20260510001543 53 260 0.9 1.7 0.02 0.11 0.11 86 1003.7
20260510001531 53 262 0.9 3.5 0.00 0.16 0.16 80 1004.5
20260510001014 53 0 0.0 7.8 0.00 0.16 0.16 79 1004.3
20260510000513 53 0 0.0 7.8 0.00 0.16 0.16 78 1004.3
20260510000048 53 0 1.7 5.2 0.00 0.10 0.10 85 1003.4
20260510000028 53 320 1.7 7.8 0.00 0.16 0.16 78 1004.4
20260509235512 54 336 1.7 7.0 0.00 0.16 0.16 77 1004.1
20260509235018 54 288 1.7 7.8 0.00 0.16 0.16 77 1004.0
20260509234535 53 0 0.9 6.1 0.00 0.09 0.09 81 1003.3
20260509234530 54 252 0.9 8.7 0.00 0.16 0.16 76 1003.7
20260509234015 54 0 1.7 11.3 0.00 0.16 0.16 75 1003.6
20260509233511 54 235 6.1 13.0 0.00 0.16 0.16 75 1003.4
20260509233035 53 213 3.5 8.7 0.00 0.09 0.09 81 1002.7
20260509233029 54 219 4.3 13.0 0.00 0.16 0.16 75 1003.4
20260509232511 54 241 5.2 13.0 0.00 0.16 0.16 74 1003.3
20260509232010 54 275 5.2 13.0 0.00 0.16 0.16 74 1003.2
20260509231544 54 233 5.2 12.2 0.00 0.09 0.09 79 1002.3
20260509231532 55 242 5.2 13.0 0.00 0.16 0.16 74 1003.2
20260509231015 55 282 7.0 13.0 0.01 0.16 0.16 74 1003.2
20260509230511 54 242 5.2 12.2 0.03 0.16 0.16 75 1003.1
20260509230041 55 221 4.3 13.0 0.01 0.09 0.09 78 1002.3
20260509230034 54 239 7.0 12.2 0.08 0.16 0.16 74 1003.1
20260509225512 55 240 5.2 11.3 0.13 0.16 0.16 75 1003.3
20260509225010 54 234 5.2 10.4 0.14 0.16 0.16 75 1003.3
20260509224540 55 255 4.3 9.6 0.08 0.09 0.09 81 1002.1
20260509224529 54 232 3.5 9.6 0.16 0.16 0.16 77 1003.1
20260509224010 53 232 4.3 12.2 0.16 0.16 0.16 79 1003.2
20260509223511 53 238 5.2 12.2 0.16 0.16 0.16 81 1003.2
20260509223039 54 242 3.5 7.8 0.09 0.09 0.09 85 1002.3
20260509223030 53 211 5.2 12.2 0.16 0.16 0.16 83 1003.2
20260509222510 53 207 5.2 14.8 0.16 0.16 0.16 82 1003.3
20260509222013 54 200 7.8 15.6 0.16 0.16 0.16 83 1003.3
20260509221538 54 209 5.2 15.6 0.09 0.09 0.09 85 1002.2
20260509221530 54 248 7.8 15.6 0.15 0.15 0.15 83 1002.6
20260509221010 55 243 7.0 15.6 0.14 0.14 0.14 82 1003.2
20260509220514 56 213 4.3 11.3 0.12 0.12 0.12 82 1003.8
20260509220045 56 253 7.0 12.2 0.07 0.07 0.07 82 1002.7
20260509220030 57 299 1.7 6.1 0.06 0.06 0.06 81 1004.4
20260509215512 57 215 1.7 7.0 0.03 0.03 0.03 80 1003.8
20260509215013 57 249 2.6 10.4 0.00 0.00 0.00 78 1003.4
20260509214602 59 265 4.3 10.4 0.00 0.00 0.00 77 1002.6
20260509214530 56 210 5.2 10.4 0.00 0.00 0.00 77 1003.4
20260509214011 57 229 3.5 7.0 0.00 0.00 0.00 75 1003.4
20260509213516 57 177 1.7 7.8 0.00 0.00 0.00 74 1003.3
20260509213040 59 226 1.7 6.1 0.00 0.00 0.00 74 1002.3
20260509213026 57 221 5.2 7.8 0.00 0.00 0.00 74 1003.3
20260509212511 57 254 3.5 7.8 0.00 0.00 0.00 74 1003.4
20260509212013 56 191 2.6 7.8 0.00 0.00 0.00 74 1003.6
20260509211542 59 248 4.3 7.8 0.00 0.00 0.00 72 1002.6
20260509211528 56 210 3.5 11.3 0.00 0.00 0.00 73 1003.5
20260509211012 57 248 4.3 11.3 0.00 0.00 0.00 73 1003.4
20260509210514 57 273 6.1 11.3 0.00 0.00 0.00 73 1003.3
20260509210043 59 167 5.2 11.3 0.00 0.00 0.00 72 1002.2
20260509210028 56 249 2.6 8.7 0.00 0.00 0.00 73 1003.2
20260509205511 56 224 4.3 9.6 0.00 0.00 0.00 73 1003.0
20260509205011 57 230 4.3 9.6 0.00 0.00 0.00 72 1003.0
20260509204537 58 225 2.6 11.3 0.00 0.00 0.00 72 1002.0
20260509204530 57 165 2.6 7.8 0.00 0.00 0.00 73 1003.1
20260509204016 57 161 2.6 7.0 0.00 0.00 0.00 73 1003.1
20260509203511 56 224 2.6 7.0 0.00 0.00 0.00 73 1003.0
20260509203053 57 231 3.5 7.0 0.00 0.00 0.00 72 1002.4
20260509203034 56 195 1.7 7.8 0.00 0.00 0.00 74 1003.2
20260509202510 56 217 3.5 7.8 0.00 0.00 0.00 74 1003.3
20260509202011 55 0 0.9 4.3 0.00 0.00 0.00 73 1003.4
20260509201541 56 240 2.6 7.8 0.00 0.00 0.00 73 1002.5
20260509201530 55 159 0.9 6.1 0.00 0.00 0.00 74 1003.3
20260509201012 54 136 0.9 6.1 0.00 0.00 0.00 74 1003.5
20260509200511 54 146 1.7 5.2 0.00 0.00 0.00 75 1003.8
20260509200041 56 189 2.6 7.0 0.00 0.00 0.00 73 1003.0
20260509200028 53 235 2.6 5.2 0.00 0.00 0.00 75 1003.8
20260509195513 53 134 0.9 5.2 0.00 0.00 0.00 76 1004.0
20260509195010 52 134 1.7 5.2 0.00 0.00 0.00 76 1003.8
20260509194541 56 153 1.7 7.8 0.00 0.00 0.00 73 1003.0
20260509194535 52 153 0.9 7.0 0.00 0.00 0.00 77 1003.8
20260509194015 52 210 2.6 7.0 0.00 0.00 0.00 76 1004.0
20260509193513 52 174 1.7 6.1 0.00 0.00 0.00 77 1003.9
20260509193038 57 220 2.6 7.8 0.00 0.00 0.00 72 1003.2
20260509193030 52 160 1.7 6.1 0.00 0.00 0.00 78 1004.0
20260509192511 51 140 2.6 6.1 0.00 0.00 0.00 77 1004.1
20260509192011 51 137 1.7 6.1 0.00 0.00 0.00 77 1004.3
20260509191551 58 276 3.5 8.7 0.00 0.00 0.00 70 1003.5
20260509191528 51 141 2.6 7.0 0.00 0.00 0.00 76 1004.4
20260509191015 52 139 2.6 7.0 0.00 0.00 0.00 76 1004.5
20260509190513 52 185 1.7 7.0 0.00 0.00 0.00 77 1004.4
20260509190048 59 246 2.6 7.8 0.00 0.00 0.00 69 1003.4
20260509190029 51 200 1.7 7.8 0.00 0.00 0.00 77 1004.4
20260509185513 51 128 4.3 7.8 0.00 0.00 0.00 76 1004.6
20260509185015 51 123 2.6 7.0 0.00 0.00 0.00 77 1004.5
20260509184549 60 229 3.5 8.7 0.00 0.00 0.00 69 1003.5
20260509184528 51 200 2.6 7.8 0.00 0.00 0.00 77 1004.5
20260509184012 51 153 2.6 7.8 0.00 0.00 0.00 78 1004.6
20260509183514 51 141 3.5 9.6 0.00 0.00 0.00 78 1004.7
20260509183050 61 225 4.3 9.6 0.00 0.00 0.00 69 1003.6
20260509183028 51 152 3.5 11.3 0.00 0.00 0.00 77 1004.7
20260509182514 52 148 4.3 11.3 0.00 0.00 0.00 77 1004.9
20260509182015 53 108 2.6 11.3 0.00 0.00 0.00 77 1004.8
20260509181541 53 115 6.1 11.3 0.00 0.00 0.00 76 1004.8
20260509181014 54 137 5.2 10.4 0.00 0.00 0.00 75 1004.6
20260509180518 55 114 4.3 10.4 0.00 0.00 0.00 76 1004.7
20260509180040 62 153 4.3 10.4 0.00 0.00 0.00 67 1003.7
20260509180028 55 136 3.5 9.6 0.00 0.00 0.00 75 1004.8
20260509175513 55 147 4.3 12.2 0.00 0.00 0.00 76 1004.9
20260509175014 55 136 5.2 12.2 0.00 0.00 0.00 75 1004.9
20260509174558 62 205 5.2 11.3 0.00 0.00 0.00 67 1003.9
20260509174526 55 165 5.2 12.2 0.00 0.00 0.00 75 1005.0
20260509174013 56 128 4.3 9.6 0.00 0.00 0.00 74 1005.2
20260509173512 56 157 6.1 9.6 0.00 0.00 0.00 74 1005.3
20260509173049 62 240 4.3 11.3 0.00 0.00 0.00 69 1004.4
20260509173028 56 167 3.5 8.7 0.00 0.00 0.00 75 1005.4
20260509172513 56 156 3.5 8.7 0.00 0.00 0.00 75 1005.4
20260509172013 57 136 3.5 7.8 0.00 0.00 0.00 71 1005.6
20260509171541 62 258 3.5 12.2 0.00 0.00 0.00 70 1004.7
20260509171528 58 142 0.9 7.0 0.00 0.00 0.00 73 1005.7
20260509171014 57 128 1.7 7.8 0.00 0.00 0.00 73 1005.7
20260509170512 57 90 2.6 7.8 0.00 0.00 0.00 74 1005.6
20260509170042 61 229 2.6 7.0 0.00 0.00 0.00 71 1004.8
20260509170030 56 184 1.7 7.0 0.00 0.00 0.00 76 1005.7
20260509165512 55 132 2.6 8.7 0.00 0.00 0.00 75 1005.7
20260509165011 55 168 4.3 8.7 0.00 0.00 0.00 75 1005.7
20260509164543 59 223 2.6 9.6 0.00 0.00 0.00 74 1004.8
20260509164530 56 98 3.5 7.8 0.00 0.00 0.00 74 1005.6
20260509164011 55 111 3.5 7.8 0.00 0.00 0.00 75 1005.6
20260509163517 56 131 2.6 7.8 0.00 0.00 0.00 74 1005.7
20260509163041 59 129 2.6 8.7 0.00 0.00 0.00 75 1005.0
20260509163032 55 113 2.6 7.8 0.00 0.00 0.00 74 1005.6
20260509162513 56 123 2.6 7.8 0.00 0.00 0.00 72 1005.9
20260509162015 56 107 3.5 7.8 0.00 0.00 0.00 72 1005.8
20260509161542 58 278 3.5 8.7 0.00 0.00 0.00 76 1005.2
20260509161534 56 163 2.6 7.8 0.00 0.00 0.00 73 1005.9
20260509161014 56 0 3.5 7.8 0.00 0.00 0.00 74 1005.9
20260509160516 56 139 2.6 7.8 0.00 0.00 0.00 74 1006.0
20260509160042 57 194 2.6 7.8 0.00 0.00 0.00 76 1005.3
20260509160030 56 109 2.6 7.0 0.00 0.00 0.00 75 1006.0
20260509155511 56 101 2.6 7.0 0.00 0.00 0.00 75 1006.2
20260509155011 55 0 0.9 7.0 0.00 0.00 0.00 77 1006.2
20260509154541 57 142 1.7 7.0 0.00 0.00 0.00 79 1005.6
20260509154530 55 131 2.6 7.0 0.00 0.00 0.00 76 1006.4
20260509154011 55 174 2.6 7.0 0.00 0.00 0.00 77 1006.5
20260509153510 54 153 1.7 5.2 0.00 0.00 0.00 76 1006.7
20260509153052 54 239 2.6 5.2 0.00 0.00 0.00 81 1005.8
20260509153028 54 198 1.7 5.2 0.00 0.00 0.00 75 1006.7
20260509152512 53 141 1.7 4.3 0.00 0.00 0.00 76 1006.8
20260509152012 53 0 0.9 4.3 0.00 0.00 0.00 78 1006.8
20260509151540 53 257 0.9 2.6 0.00 0.00 0.00 83 1006.0
20260509151530 52 180 1.7 4.3 0.00 0.00 0.00 79 1006.8
20260509151011 51 136 0.9 4.3 0.00 0.00 0.00 80 1006.8
20260509150512 50 0 0.0 6.1 0.00 0.00 0.00 81 1006.7
20260509150039 51 209 1.7 4.3 0.00 0.00 0.00 83 1005.9
20260509150028 49 136 2.6 6.1 0.00 0.00 0.00 80 1006.6
20260509145513 49 119 1.7 6.1 0.00 0.00 0.00 80 1006.7
20260509145012 49 0 0.9 7.0 0.00 0.00 0.00 80 1006.8
20260509144544 52 229 0.9 3.5 0.00 0.00 0.00 82 1006.0
20260509144536 49 130 2.6 7.0 0.00 0.00 0.00 80 1007.0
20260509144012 49 139 1.7 7.0 0.00 0.00 0.00 79 1007.1
20260509143512 49 202 1.7 5.2 0.00 0.00 0.00 79 1007.2
20260509143042 52 268 0.9 5.2 0.00 0.00 0.00 81 1006.2
20260509143030 49 192 1.7 5.2 0.00 0.00 0.00 78 1007.2
20260509142511 50 199 0.0 3.5 0.00 0.00 0.00 78 1007.2
20260509142013 49 206 0.9 3.5 0.00 0.00 0.00 79 1007.2
20260509141540 52 248 1.7 5.2 0.00 0.00 0.00 81 1006.2
20260509141528 49 144 0.9 4.3 0.00 0.00 0.00 78 1007.2
20260509141017 49 113 0.9 5.2 0.00 0.00 0.00 77 1007.2
20260509140512 49 123 1.7 5.2 0.00 0.00 0.00 77 1007.3
20260509140041 52 227 1.7 4.3 0.00 0.00 0.00 80 1006.2
20260509140030 49 128 1.7 5.2 0.00 0.00 0.00 77 1007.3
20260509135512 48 104 1.7 6.1 0.00 0.00 0.00 77 1007.3
20260509135013 48 126 1.7 6.1 0.00 0.00 0.00 77 1007.3
20260509134540 51 138 1.7 7.0 0.00 0.00 0.00 80 1006.4
20260509134529 48 138 1.7 5.2 0.00 0.00 0.00 77 1007.3
20260509134012 48 123 2.6 5.2 0.00 0.00 0.00 76 1007.4
20260509133512 48 159 1.7 5.2 0.00 0.00 0.00 76 1007.4
20260509133041 52 249 0.9 2.6 0.00 0.00 0.00 79 1006.5
20260509133030 48 157 2.6 6.1 0.00 0.00 0.00 76 1007.4
20260509132514 48 149 1.7 7.0 0.00 0.00 0.00 76 1007.5
20260509132013 48 140 2.6 7.0 0.00 0.00 0.00 76 1007.6
20260509131540 51 221 1.7 7.0 0.00 0.00 0.00 77 1006.6
20260509131528 48 141 2.6 7.0 0.00 0.00 0.00 75 1007.6
20260509131014 49 132 2.6 7.0 0.00 0.00 0.00 74 1007.6
20260509130510 49 150 1.7 6.1 0.00 0.00 0.00 73 1007.6
20260509130042 51 269 0.9 2.6 0.00 0.00 0.00 75 1006.6
20260509130032 49 138 2.6 7.0 0.00 0.00 0.00 72 1007.6
20260509125512 50 148 3.5 7.0 0.00 0.00 0.00 71 1007.5
20260509125012 50 122 2.6 7.0 0.00 0.00 0.00 71 1007.6
20260509124541 50 255 0.9 3.5 0.00 0.00 0.00 73 1006.7
20260509124527 50 184 1.7 6.1 0.00 0.00 0.00 71 1007.6
20260509124014 49 115 2.6 6.1 0.00 0.00 0.00 69 1007.5
20260509123512 49 87 1.7 5.2 0.00 0.00 0.00 69 1007.6
20260509123042 49 87 0.9 2.6 0.00 0.00 0.00 70 1006.6
20260509123027 49 124 0.9 5.2 0.00 0.00 0.00 69 1007.6
20260509122513 48 113 1.7 6.1 0.00 0.00 0.00 69 1007.7
20260509122012 48 97 1.7 6.1 0.00 0.00 0.00 68 1007.7
20260509121546 47 184 0.0 0.9 0.00 0.00 0.00 71 1006.8
20260509121530 48 155 1.7 5.2 0.00 0.00 0.00 68 1007.8
20260509121012 47 119 1.7 6.1 0.00 0.00 0.00 68 1007.8
20260509120511 47 144 1.7 6.1 0.00 0.00 0.00 68 1007.7
20260509120035 46 0 0.0 0.9 0.00 0.00 0.00 72 1006.6
20260509120030 47 129 0.9 3.5 0.00 0.00 0.00 69 1007.7
20260509115511 47 58 0.0 2.6 0.00 0.00 0.00 69 1007.7
20260509115014 46 0 0.9 3.5 0.00 0.00 0.00 69 1007.7
20260509114552 44 0 0.0 0.0 0.00 0.00 0.00 74 1006.7
20260509114528 46 94 0.9 3.5 0.00 0.00 0.00 69 1007.7
20260509114012 45 108 1.7 3.5 0.00 0.00 0.00 69 1007.7
20260509113510 45 86 0.9 3.5 0.00 0.00 0.00 70 1007.7
20260509113045 43 0 0.0 0.0 0.00 0.00 0.00 76 1006.7
20260509113033 45 63 0.0 2.6 0.00 0.00 0.00 72 1007.7
20260509112513 44 123 0.9 2.6 0.00 0.00 0.00 73 1007.8
20260509112010 44 117 0.0 2.6 0.00 0.00 0.00 74 1007.8
20260509111541 42 0 0.0 0.0 0.00 0.00 0.00 78 1006.8
20260509111011 43 0 0.0 1.7 0.00 0.00 0.00 78 1007.7
20260509110512 42 0 0.0 1.7 0.00 0.00 0.00 79 1007.7
20260509110042 41 0 0.0 0.0 0.00 0.00 0.00 80 1006.7
20260509105510 42 0 0.0 0.0 0.00 0.00 0.00 80 1007.9